User: anonymous   Login
Location: Skalnate Pleso
(49.1889°N, 20.2450°E)
Time: 23:49:28
(UTC+02:00)
Language:

Iridium 18 - Orbit

View from above orbital plane
View from above orbital plane
View from above satellite
View from above satellite

Ground track
Ground track

The orbit data is extracted from the following two-line orbital elements,

1 24872U 97034D   16152.48914439  .00000002  00000-0 -64984-5 0  9992
2 24872  86.3980 181.6047 0002360  89.9595 270.1871 14.34218675989207
Epoch (UTC): 31 May 2016 11:44:22
Eccentricity: 0.0002360
inclination: 86.3980°
perigee height: 776 km
apogee height: 779 km
right ascension of ascending node: 181.6047°
argument of perigee: 89.9595°
revolutions per day: 14.34218675
mean anomaly at epoch: 270.1871°
orbit number at epoch: 98920

The dashed part of the orbit path shows where the satellite is in the earth's shadow,  

DLR